Regional Weather Roundup
Issued by NWS

Home | Current Version | Previous Version | Text Only | Print | Product List | Glossary Off
Versions: 1 2 3 4 5 6 7 8 9 10 11 12 13 14 15 16 17 18 19 20 21 22 23 24 25 26 27 28 29 30 31 32 33 34 35 36 37 38 39 40 41 42 43 44 45 46 47 48 49 50

000
ASUS45 KSLC 170810
RWRUT

UTAH REGIONAL WEATHER ROUNDUP
NATIONAL WEATHER SERVICE SALT LAKE CITY UT
200 AM MDT WED SEP 17 2014

UTZ001>011-023>025-170900-

NORTHERN UTAH

CITY           SKY/WX    TMP DP  RH WIND       PRES   REMARKS
HILL AFB       CLEAR     70  41  35 E18       30.00S
LOGAN          CLEAR     55  47  74 NE3       30.00R
OGDEN          CLEAR     69  42  37 S9        29.97S
PROVO AIRPORT  CLEAR     64  45  48 S7        30.02S
SALT LAKE CITY CLEAR     74  40  29 S12       29.95S
VERNAL         CLEAR     58  42  55 W5        30.11S
WENDOVER       CLEAR     66  39  37 N5        29.94S
HEBER CITY     CLEAR     48  41  76 CALM      30.12F
WEST JORDAN    CLEAR     68  39  34 SE6       30.00S

$$

UTZ012>022-026-027-170900-

SOUTHERN UTAH

CITY           SKY/WX    TMP DP  RH WIND       PRES   REMARKS
BRYCE CANYON   CLOUDY    53  42  66 W8        30.29F
CEDAR CITY     CLOUDY    71  44  37 SW13      30.11S
MILFORD        PTCLDY    68  40  35 S7        30.04S
MOAB/CYNLANDS  CLEAR     64  41  42 CALM      30.03R
PRICE          CLEAR     62  35  36 NE5       30.14S
ST GEORGE      SUNNY     81  55  41 S9        29.97S
KANAB            N/A     70  48  46 CALM      30.13F

$$

REGIONAL REPORTS     COLORADO/ARIZONA

CITY           SKY/WX    TMP DP  RH WIND       PRES   REMARKS
CRAIG, CO      CLEAR     44  38  79 NE3       30.20S
GRAND JUNCTION CLEAR     60  42  51 SE7       30.08S
RIFLE          CLEAR     53  42  66 SE5       30.16S
MONTROSE       PTCLDY    59  41  51 SE5       30.18S
CORTEZ         CLEAR     54  49  83 CALM      30.19S
PAGE, AZ       CLOUDY    74  53  48 SE8       30.06F
GRAND CANYON   CLOUDY    64  49  57 E3        30.20S
KINGMAN        CLOUDY    73  58  59 E8        29.98F
FLAGSTAFF      CLOUDY    57  54  89 E5        30.23F

$$

REGIONAL REPORTS    NEVADA/IDAHO/WYOMING

CITY           SKY/WX    TMP DP  RH WIND       PRES   REMARKS
LAS VEGAS, NV  MOCLDY    85  54  34 SW8       29.84F
ELY            CLEAR     63  38  39 S14       30.13F
ELKO           PTCLDY    58  36  43 E5        30.00F
POCATELLO, ID  CLEAR     58  44  60 NE3       29.98S
BURLEY         PTCLDY    57  48  72 CALM      29.93S
EVANSTON, WY   CLEAR     58  36  43 SE7       30.21S
ROCK SPRINGS   CLEAR     58  36  43 S7        30.19F

$$



USA.gov is the U.S. government's official web portal to all federal, state and local government web resources and services.